Regional Weather Roundup
Issued by NWS

Home | Current Version | Previous Version | Graphics & Text | Print | Product List | Glossary On
Versions: 1 2 3 4 5 6 7 8 9 10 11 12 13 14 15 16 17 18 19 20 21 22 23 24 25 26 27
000
ASUS45 KSLC 231210
RWRUT

UTAH REGIONAL WEATHER ROUNDUP
NATIONAL WEATHER SERVICE SALT LAKE CITY UT
600 AM MDT WED AUG 23 2017

UTZ001>011-023>025-231300-

NORTHERN UTAH

CITY           SKY/WX    TMP DP  RH WIND       PRES   REMARKS
BRIGHAM CITY   CLOUDY    71  50  48 N3        30.15S
DUGWAY         PTCLDY    55  45  68 E5        30.15F
HILL AFB       MOCLDY    68  46  44 E10       30.17F
LOGAN          CLOUDY    64  53  67 NE6       30.16S
OGDEN          MOCLDY    68  47  46 S3        30.14F
SALT LAKE CITY PTCLDY    70  54  56 S9        30.14R
TOOELE VALLEY  PTCLDY    63  52  67 SW7       30.16R
WENDOVER       PTCLDY    63  48  58 NE3       30.14S
HEBER CITY     PTCLDY    54  48  82 SE3       30.24S
WEST JORDAN    PTCLDY    65  58  78 S6        30.18S

$$

UTZ011>015-024>027-231300-

CENTRAL/NORTHEAST UTAH

CITY           SKY/WX    TMP DP  RH WIND       PRES   REMARKS
PROVO AIRPORT  CLEAR     61  54  77 E7        30.20R
MOAB/CANYONLAN CLEAR     67  48  50 SE3       30.16S
DELTA          PTCLDY    59  45  58 S8        30.19S
PRICE          PTCLDY    56  51  84 CALM      30.26S
RICHFIELD        N/A    N/A N/A N/A MISG        N/A
ROOSEVELT      CLOUDY    63  46  55 W5        30.24R
VERNAL         PTCLDY    66  45  46 NW3       30.23R

$$

UTZ013>016-019>022-027-231300-

SOUTHERN UTAH

CITY           SKY/WX    TMP DP  RH WIND       PRES   REMARKS
BRYCE CANYON   CLEAR     45  43  93 NW6       30.40S
CEDAR CITY     CLEAR     53  45  74 CALM      30.23S
MILFORD        CLEAR     55  45  68 W7        30.20F
ST GEORGE      MOSUNNY   71  47  42 CALM      30.06S
HANKSVILLE     CLEAR     61  41  48 E3        30.20S
KANAB          CLEAR     59  48  67 N5        30.24S
BLANDING       CLEAR     58  44  61 N8        30.35S

$$

REGIONAL REPORTS     COLORADO/ARIZONA

CITY           SKY/WX    TMP DP  RH WIND       PRES   REMARKS
CRAIG, CO      PTCLDY    53  44  71 CALM      30.31S
GRAND JUNCTION CLOUDY    64  51  62 SE10      30.22R
RIFLE, CO      CLOUDY    58  47  66 CALM      30.28S
MONTROSE, CO   CLOUDY    56  47  71 SE3       30.31S
CORTEZ, CO     CLEAR     49  46  90 NE3       30.29S
COLORADO CITY  PTSUNNY   59  52  77 E7        30.22R
PAGE, AZ       PTCLDY    73  45  36 CALM      30.14S
GRAND CANYON   PTCLDY    51  47  86 NE8       30.32F
KINGMAN, AZ    PTCLDY    67  46  47 E3        30.07S
FLAGSTAFF, AZ  PTCLDY    49  43  80 CALM      30.35S

$$

REGIONAL REPORTS    NEVADA/IDAHO/WYOMING

CITY           SKY/WX    TMP DP  RH WIND       PRES   REMARKS
LAS VEGAS, NV  MOCLDY    84  46  26 SW3       29.96S
ELY, NY        CLEAR     52  45  77 SE6       30.29R
ELKO, NV       CLEAR     54  47  77 CALM      30.21S
POCATELLO, ID  CLOUDY    61  50  67 SE5       30.15S
BURLEY, ID     CLOUDY    66  51  58 NE3       30.10R
FORT BRIDGER,    N/A     63  40  43 W12       30.35S
EVANSTON, WY   LGT RAIN  60  43  53 N3        30.33F
ROCK SPRINGS,  CLOUDY    64  38  38 SW10      30.29S
KEMMERER, WY     N/A     55  37  50 NW10      30.34S

$$




USA.gov is the U.S. government's official web portal to all federal, state and local government web resources and services.